Wind_Speed
15 16 17 18 20 22 23 25 26 26 26 27 28 28 28 28 28 28 28 28 29 28 28 28 27 27 26 25 24 24 25 26 27 28 28 29 28 28 27 26 25 24
11 13 14 16 17 18 20 21 23 24 24 24 26 26 27 27 26 26 26 27 27 28 28 27 27 26 26 25 24 24 24 25 26 27 27 27 26 26 26 25 24 23
9 10 11 13 14 15 16 18 19 20 21 22 22 24 25 25 25 25 25 25 25 26 26 26 26 25 25 24 24 23 22 22 23 23 24 23 23 24 24 24 24 23
8 9 9 10 10 11 13 14 15 16 17 18 19 21 22 23 23 23 23 23 23 23 24 24 24 24 23 23 22 22 21 20 19 18 19 19 20 21 22 22 22 22
8 8 9 9 9 9 10 11 12 13 14 15 16 17 18 19 21 21 21 21 21 21 21 22 22 22 22 21 20 20 19 19 17 17 17 17 18 19 20 20 20 20
9 9 9 10 9 8 8 8 9 10 11 12 13 14 15 16 17 19 19 19 19 19 19 20 20 20 20 20 19 18 18 17 16 16 16 16 16 16 16 16 16 16
11 11 10 10 10 10 9 8 7 8 8 9 10 11 12 13 14 15 16 17 17 17 17 18 18 18 18 17 17 17 16 16 15 14 13 13 13 12 12 12 12 12
12 12 12 11 11 11 11 9 8 7 6 6 7 8 9 9 10 12 13 14 15 15 15 15 16 16 16 16 15 15 14 14 14 13 12 11 10 10 9 9 9 8
15 14 14 13 13 12 12 12 10 8 6 5 4 5 6 7 7 8 9 10 11 12 13 13 13 13 14 14 14 13 12 12 12 12 11 10 9 8 8 7 7 6
17 17 16 16 15 14 14 13 13 11 9 7 5 4 4 5 5 6 6 6 7 8 9 10 11 11 11 11 12 11 11 10 10 9 9 8 8 7 6 5 5 4
20 20 19 18 18 17 16 16 15 14 12 10 8 7 5 4 4 4 4 4 4 4 5 6 7 8 8 8 8 9 9 9 9 8 8 6 5 5 4 3 2 2
24 23 22 21 21 20 19 18 18 17 15 13 12 11 9 7 6 5 4 5 5 4 3 3 3 4 5 5 6 6 6 6 7 7 7 6 5 4 3 1 0 1
27 27 26 24 24 23 22 21 21 20 18 16 14 14 13 11 9 7 7 7 7 7 6 5 3 2 3 4 4 4 4 4 4 5 5 6 5 4 3 2 2 2
30 30 29 28 27 26 25 24 24 23 21 20 17 16 17 16 14 11 10 10 10 10 10 10 8 5 5 6 5 3 3 2 2 2 3 3 3 3 2 2 2 2
34 32 32 31 30 29 28 27 27 26 24 23 22 20 19 19 18 15 13 12 12 13 13 14 13 9 7 7 6 5 4 3 3 2 1 1 1 2 1 1 2 2
39 36 34 33 32 31 30 29 29 28 26 25 25 24 23 22 21 19 17 16 15 15 15 15 15 13 11 10 10 10 9 8 6 6 5 4 4 3 4 3 2 2
40 38 36 35 33 32 32 32 31 31 29 27 27 27 27 27 26 25 23 21 20 19 17 16 16 17 17 15 14 14 14 13 11 11 10 9 8 7 6 6 5 4
40 39 37 35 34 34 35 34 34 35 34 30 29 29 30 30 30 29 28 27 25 23 21 19 19 20 20 20 20 19 18 17 15 15 15 14 14 13 12 10 9 8
41 39 36 34 33 34 36 36 35 36 37 34 32 32 31 32 33 32 31 30 29 27 24 21 21 22 23 22 22 22 21 20 19 18 19 18 18 19 18 17 16 15
44 39 36 35 35 34 36 37 36 37 38 37 35 35 35 35 35 35 34 33 32 30 28 26 24 25 25 25 24 24 24 24 23 22 21 21 22 23 23 22 22 21
48 42 38 39 40 38 37 38 38 39 41 41 37 35 34 35 35 35 36 35 35 33 31 30 29 29 29 28 27 27 27 27 26 25 23 23 24 26 26 26 26 25
49 46 43 43 45 43 40 40 40 40 40 40 39 36 32 32 33 35 36 36 36 36 35 34 34 33 32 31 29 29 29 29 29 29 27 26 26 27 28 29 29 29
53 50 48 47 47 46 43 41 42 41 38 40 44 42 35 33 35 36 37 37 37 37 37 36 37 37 36 34 33 33 33 32 31 31 31 30 30 30 30 30 31 30
57 54 53 51 49 49 47 45 45 44 42 43 48 46 41 40 39 39 39 40 40 40 40 39 39 40 41 40 38 37 37 37 35 33 33 34 34 34 34 32 32 32
59 56 56 56 54 53 52 52 51 50 48 48 50 51 50 49 47 45 44 43 44 45 45 44 41 41 43 44 44 42 41 40 39 35 34 36 37 37 37 35 34 34
62 60 60 61 59 55 54 56 57 57 57 56 55 55 55 54 53 52 51 52 54 55 54 52 49 46 45 45 45 44 43 42 41 38 37 37 37 36 37 37 38 37
Wind_Direction
38 38 41 46 52 56 57 57 59 59 58 58 59 59 59 60 61 62 63 62 63 66 69 72 74 77 81 84 87 91 96 100 104 108 112 115 115 113 110 108 107 106
25 30 33 36 44 53 57 58 60 62 61 60 60 61 60 60 61 62 62 63 63 65 68 70 74 77 80 83 86 92 98 102 104 108 112 115 114 111 109 108 106 106
11 18 24 27 34 43 52 56 59 62 62 61 60 61 62 62 61 61 61 63 64 65 66 68 71 74 79 83 86 90 96 101 104 107 111 115 116 114 111 109 106 105
351 359 8 14 21 31 41 50 55 58 59 61 61 61 62 63 63 62 61 62 64 66 65 66 68 71 75 80 84 87 91 97 101 104 108 116 120 120 116 111 107 104
329 336 343 350 0 11 23 36 47 52 53 55 58 60 61 63 63 64 64 63 64 66 66 66 67 69 72 75 79 83 88 95 100 104 108 114 120 122 118 112 107 103
308 316 322 326 332 342 356 13 29 41 48 49 51 54 57 61 64 66 65 65 65 65 67 68 68 69 71 73 75 79 84 91 98 104 109 113 118 121 120 115 108 103
291 297 303 309 312 318 326 339 357 16 35 43 44 46 48 53 60 65 67 67 65 65 66 68 69 68 68 70 73 76 80 84 91 97 102 108 114 119 122 120 111 105
276 282 287 293 297 302 308 313 322 343 5 26 35 38 41 42 46 56 63 67 67 66 65 66 68 69 67 67 69 72 77 82 86 91 95 100 107 113 119 123 120 112
265 268 273 278 283 287 293 297 301 311 326 341 2 20 29 33 35 41 50 60 67 68 67 65 64 67 68 68 67 68 71 77 83 90 96 101 106 111 115 121 126 125
261 261 263 265 270 276 279 283 287 292 303 310 313 325 351 9 21 29 34 43 58 68 71 70 65 63 65 67 69 68 68 70 74 78 87 97 105 114 121 128 136 143
257 257 259 259 260 264 268 271 275 279 286 295 298 298 302 321 345 5 14 12 22 50 67 75 74 70 67 66 66 67 67 69 69 65 66 75 86 99 112 129 150 173
253 253 254 256 255 256 259 263 266 269 273 280 287 290 290 290 299 317 328 329 333 346 2 27 69 81 75 73 75 71 67 67 71 67 61 59 60 60 64 76 205 257
251 251 251 253 253 253 253 256 259 261 263 269 276 282 285 283 281 289 297 301 308 314 317 320 325 0 15 25 50 67 69 63 61 60 55 54 55 54 42 20 331 306
251 252 252 252 253 253 253 252 253 255 257 261 267 271 277 280 278 279 284 288 294 300 304 307 312 323 330 329 339 12 38 41 40 36 36 36 33 36 37 27 8 332
252 249 250 252 253 255 257 254 251 251 253 256 260 265 271 276 277 277 278 280 285 291 297 303 309 312 308 298 292 295 322 339 333 312 304 315 326 324 318 329 351 349
252 248 248 250 252 255 257 257 251 247 249 253 257 262 267 270 271 271 272 273 276 280 286 293 297 296 293 288 280 274 282 302 312 304 291 276 266 264 260 259 267 287
251 247 247 248 250 253 255 256 251 244 244 248 253 258 263 266 267 269 269 270 272 273 278 285 287 285 284 284 280 276 279 288 294 294 292 286 277 270 263 258 256 259
245 243 245 247 248 251 253 255 252 244 240 242 247 253 258 262 264 266 268 269 270 270 273 277 277 278 279 281 281 282 283 286 286 286 288 288 287 283 280 280 279 281
240 239 242 244 248 251 252 254 253 247 241 242 245 246 250 256 260 261 264 265 267 268 269 269 269 270 272 274 278 281 282 282 283 283 285 287 288 287 286 287 288 290
238 237 239 242 246 250 249 248 249 249 245 244 247 248 248 251 253 256 258 261 263 265 266 266 266 266 267 268 271 277 280 281 280 281 283 284 285 286 287 288 289 289
236 236 237 240 245 247 246 243 242 244 244 243 248 252 250 248 248 251 255 257 259 261 263 265 266 267 267 266 268 272 276 278 279 278 278 279 280 283 284 285 286 287
237 238 237 239 243 245 245 244 242 242 242 244 248 251 250 251 251 250 253 255 257 258 259 261 264 268 269 266 266 270 272 274 276 276 274 274 275 278 281 281 282 283
239 238 235 236 239 238 237 241 244 245 245 245 247 249 253 257 254 251 253 257 258 258 257 257 261 265 268 267 267 270 271 270 271 273 273 273 273 275 277 278 279 280
236 234 232 233 235 233 232 233 237 242 244 243 242 244 252 260 256 252 255 259 260 259 257 258 260 263 265 266 266 268 269 268 268 269 271 272 272 272 273 274 275 276
232 231 231 232 233 233 233 232 235 239 242 242 241 245 254 259 255 252 254 256 259 260 259 260 262 263 264 263 263 265 266 266 267 268 269 269 269 270 271 270 270 271
232 231 230 230 232 233 233 234 236 238 240 243 247 250 255 256 252 250 251 253 255 257 258 258 260 261 262 261 260 262 263 264 266 268 267 266 265 265 267 268 268 269
Height
11025 11025 11025 11024 11023 11022 11021 11020 11019 11018 11017 11015 11014 11012 11011 11010 11009 11008 11007 11007 11006 11006 11005 11005 11004 11004 11004 11004 11004 11004 11004 11004 11004 11004 11005 11005 11006 11006 11006 11006 11006 11006
11026 11026 11026 11025 11024 11023 11023 11022 11021 11020 11019 11018 11016 11015 11014 11013 11011 11011 11010 11009 11009 11008 11008 11007 11007 11007 11007 11007 11007 11007 11008 11008 11008 11008 11008 11009 11009 11009 11009 11009 11009 11009
11027 11027 11026 11026 11026 11025 11024 11024 11023 11022 11021 11020 11019 11018 11016 11015 11014 11013 11012 11012 11011 11011 11011 11010 11010 11009 11009 11009 11010 11010 11010 11010 11010 11011 11011 11012 11012 11012 11012 11013 11013 11012
11027 11027 11027 11027 11027 11026 11026 11025 11024 11024 11023 11022 11021 11020 11019 11018 11017 11016 11015 11014 11013 11013 11013 11013 11012 11012 11012 11012 11012 11012 11012 11012 11013 11013 11014 11014 11014 11015 11015 11015 11015 11015
11027 11028 11028 11027 11027 11027 11027 11026 11026 11025 11024 11024 11023 11022 11021 11021 11020 11018 11018 11017 11016 11015 11015 11015 11015 11015 11014 11014 11014 11014 11015 11015 11015 11015 11015 11016 11016 11016 11017 11017 11017 11017
11027 11028 11028 11028 11028 11027 11027 11027 11027 11026 11026 11025 11024 11024 11023 11023 11022 11021 11020 11019 11018 11018 11017 11017 11017 11017 11017 11016 11016 11017 11017 11017 11017 11017 11017 11017 11018 11018 11018 11018 11018 11018
11027 11027 11028 11028 11028 11028 11028 11027 11027 11027 11026 11026 11025 11025 11025 11025 11024 11023 11022 11021 11021 11020 11019 11019 11018 11018 11018 11018 11018 11019 11019 11019 11019 11019 11019 11019 11019 11019 11019 11020 11020 11020
11026 11027 11027 11028 11028 11028 11027 11027 11027 11027 11027 11026 11026 11025 11025 11025 11025 11025 11024 11023 11022 11022 11021 11021 11020 11020 11020 11020 11020 11020 11020 11020 11020 11021 11021 11021 11021 11020 11020 11020 11020 11020
11025 11026 11026 11027 11027 11027 11027 11027 11027 11027 11027 11026 11026 11026 11026 11025 11025 11026 11025 11025 11024 11024 11023 11023 11022 11021 11021 11021 11021 11021 11021 11022 11022 11022 11022 11022 11021 11021 11021 11021 11021 11021
11023 11024 11025 11025 11026 11026 11026 11026 11026 11026 11026 11026 11026 11026 11026 11025 11025 11026 11026 11026 11025 11025 11025 11024 11024 11023 11023 11022 11022 11022 11022 11022 11023 11023 11022 11022 11022 11022 11022 11022 11022 11021
11020 11021 11022 11023 11024 11025 11025 11026 11026 11026 11025 11025 11025 11025 11025 11025 11025 11026 11026 11026 11026 11026 11025 11025 11025 11024 11024 11024 11023 11023 11023 11023 11023 11023 11023 11023 11022 11022 11022 11022 11022 11022
11017 11018 11019 11020 11021 11022 11023 11024 11024 11025 11024 11024 11024 11024 11024 11025 11025 11025 11025 11026 11026 11026 11026 11025 11025 11025 11025 11025 11024 11024 11023 11023 11023 11023 11023 11023 11023 11023 11022 11022 11022 11022
11013 11014 11016 11017 11018 11019 11020 11021 11022 11023 11023 11023 11023 11023 11023 11024 11024 11025 11025 11025 11025 11025 11025 11025 11025 11025 11025 11025 11025 11025 11024 11024 11023 11023 11023 11023 11023 11022 11022 11022 11022 11022
11010 11011 11012 11014 11015 11016 11018 11019 11019 11021 11022 11022 11023 11022 11022 11022 11023 11024 11024 11023 11023 11023 11024 11024 11024 11024 11025 11025 11025 11025 11025 11024 11024 11023 11023 11023 11023 11023 11022 11022 11022 11022
11006 11007 11008 11010 11012 11014 11015 11016 11017 11018 11020 11021 11021 11021 11021 11021 11022 11022 11022 11022 11022 11022 11022 11022 11023 11023 11023 11023 11023 11024 11024 11024 11024 11024 11023 11023 11022 11022 11022 11022 11022 11021
11001 11002 11004 11006 11008 11010 11011 11012 11014 11015 11017 11018 11019 11019 11020 11020 11020 11020 11020 11020 11020 11020 11021 11021 11022 11021 11021 11021 11021 11022 11022 11022 11023 11023 11023 11022 11022 11021 11021 11021 11021 11021
10995 10997 10999 11001 11003 11005 11007 11008 11009 11011 11013 11015 11016 11017 11018 11018 11018 11018 11018 11018 11018 11018 11019 11020 11020 11019 11019 11019 11019 11020 11020 11021 11021 11021 11021 11021 11021 11021 11020 11020 11020 11020
10989 10991 10993 10995 10998 11000 11002 11003 11004 11006 11008 11010 11012 11013 11014 11014 11015 11015 11016 11016 11016 11016 11017 11018 11018 11017 11017 11017 11017 11017 11018 11018 11019 11019 11019 11020 11020 11019 11019 11019 11019 11019
10984 10985 10988 10990 10993 10994 10997 10998 10999 11001 11003 11005 11007 11008 11009 11009 11010 11011 11011 11011 11012 11013 11014 11015 11015 11014 11014 11014 11014 11014 11015 11015 11016 11016 11017 11017 11017 11017 11017 11017 11017 11017
10978 10981 10983 10986 10988 10990 10992 10993 10995 10997 10999 11000 11002 11003 11004 11004 11004 11004 11005 11006 11006 11008 11009 11011 11012 11012 11011 11012 11012 11012 11012 11012 11013 11014 11014 11014 11014 11014 11014 11014 11014 11014
10972 10976 10979 10981 10983 10985 10987 10989 10991 10993 10994 10996 10998 10999 10998 10998 10998 10999 11000 11000 11001 11002 11004 11005 11007 11008 11009 11009 11009 11009 11009 11010 11010 11011 11011 11011 11011 11010 11010 11011 11011 11011
10966 10971 10974 10976 10978 10981 10983 10985 10987 10989 10992 10995 10995 10994 10994 10994 10995 10995 10995 10995 10996 10997 10999 11000 11001 11003 11004 11005 11006 11006 11006 11007 11007 11008 11008 11008 11008 11007 11007 11007 11008 11008
10961 10965 10968 10970 10972 10974 10976 10979 10982 10985 10989 10991 10989 10989 10991 10992 10992 10992 10992 10992 10992 10993 10994 10995 10997 10999 11000 11001 11002 11003 11003 11003 11004 11004 11004 11005 11005 11004 11004 11004 11004 11004
10955 10958 10961 10963 10965 10968 10971 10973 10976 10979 10983 10984 10982 10983 10987 10989 10989 10990 10990 10989 10990 10990 10991 10991 10993 10994 10996 10997 10998 10999 10999 10999 10999 11000 11000 11000 11000 11000 11001 11001 11001 11001
10949 10951 10953 10955 10958 10961 10965 10967 10970 10973 10976 10977 10976 10977 10979 10982 10985 10986 10987 10987 10987 10987 10987 10987 10988 10989 10990 10991 10993 10994 10995 10994 10994 10995 10996 10995 10995 10995 10996 10997 10997 10997
10941 10943 10945 10948 10951 10954 10957 10959 10962 10964 10967 10969 10970 10971 10972 10974 10976 10978 10980 10981 10981 10981 10981 10982 10983 10983 10983 10985 10987 10989 10991 10991 10990 10991 10991 10990 10990 10990 10990 10990 10991 10992